Hourly Data Report for August 12, 2020

SVARTEVAEG
NUNAVUT
Current Station Operator: ECCC - MSC

81°09'39.000" N
91°48'59.060" W
72.00 m
2403833
71872
NSG

Download Data

Hourly Data (August 2020)
Hourly Data Report for August 12, 2020
TIME Temp Definition
°C
Dew Point Definition
°C
Rel Hum Definition
%
Wind Dir Definition
10's deg

Wind Spd Definition
km/h
Visibility Definition
km
Stn Press Definition
kPa
Hmdx Definition


Wind Chill Definition


Weather Definition


00:00 0.9 -0.2 92 1 9   99.13     LegendNANA
01:00 1.6 -0.2 88 34 13   99.11     LegendNANA
02:00 1.0 -0.4 90 35 16   99.11     LegendNANA
03:00 1.2 -0.6 88 35 15   99.07     LegendNANA
04:00 1.1 -0.2 91 34 14   99.04     LegendNANA
05:00 1.5 -0.6 86 35 17   99.04     LegendNANA
06:00 1.9 -0.7 83 34 19   98.97     LegendNANA
07:00 1.9 -0.2 86 35 18   98.93     LegendNANA
08:00 2.3 -0.1 84 34 18   98.89     LegendNANA
09:00 1.5 -0.3 87 35 18   98.87     LegendNANA
10:00 1.1 -0.7 88 35 25   98.85     LegendNANA
11:00 1.0 -0.8 88 34 28   98.82     LegendNANA
12:00 1.5 -0.7 86 35 27   98.80     LegendNANA
13:00 -0.2 -1.3 92 35 28   98.82   -7 LegendNANA
14:00 -0.1 -1.1 93 35 27   98.83   -6 LegendNANA
15:00 -0.3 -1.5 92 35 31   98.82   -7 LegendNANA
16:00 -0.4 -1.5 92 35 29   98.84   -7 LegendNANA
17:00 -0.6 -1.5 94 35 29   98.87   -7 LegendNANA
18:00 -1.1 -1.7 96 34 28   98.92   -8 LegendNANA
19:00 -1.2 -1.7 96 35 22   98.92   -7 LegendNANA
20:00 -1.5 -1.9 97 34 22   98.97   -7 LegendNANA
21:00 -1.7 -1.9 99 33 23   99.01   -8 LegendNANA
22:00 -1.9 -2.1 99 34 19   99.04   -7 LegendNANA
23:00 -1.6 -1.8 99 36 13   99.06   -6 LegendNANA

Notes on Data Quality.

Legend

  • E = Estimated
  • M = Missing
  • NA = Not Available*
  • [empty] = Indicates an unobserved value
Date modified: